Flag for Poland Weather past 2 weeks in Gdańsk, Poland

Now
50 °F

Clear.


Feels Like: 50 °F
Forecast: 56 / 67 °F
Wind: 1 mph from East

Location: Gdansk-Rebiechowo

Current Time: Sep 2, 2014 at 5:54:34 AM

Latest Report: Sep 2, 2014 at 5:00 AM


Visibility: 10 mi

Pressure: 30.15 "Hg

Humidity: 94%

Dew point: 48 °F

Location of GdańskLocation

Historic Weather in Gdańsk — Graph

°F

Gdańsk temperature yesterday

Maximum temperature yesterday: 61 °F (at 3:00 PM)
Minimum temperature yesterday: 54 °F (at 6:00 AM)
Average temperature yesterday: 58 °F

Past Weeks' High & Low Weather Summary

 TemperatureHumidityPressure
High70 °F (Aug 29, 1:00 PM)100% (Aug 24, 2:30 AM)30.15 "Hg (Aug 24, 2:30 AM)
Low43 °F (Aug 24, 6:30 AM)31% (Aug 29, 2:00 PM)29.56 "Hg (Aug 18, 5:00 PM)
Average57 °F74%29.87 "Hg
* Reported Aug 18 4:00 AM — Sep 2 4:30 AM, Gdańsk, Weather by CustomWeather, © 2014

Note: Actual official high and low records may vary slightly from our data, if they occured in-between our weather recording intervals... More about our weather records

Advertising

Gdańsk weather history for previous 24 hours

 ConditionsComfort  
Time TempWeatherWind HumidityBarometerVisibility
4:30 AM
Sep 2
50 °FClear.3 mph94%30.15 "Hg10 mi
4:00 AM52 °FPassing clouds.3 mph88%30.15 "HgN/A
3:30 AM52 °FClear.5 mph88%30.15 "Hg10 mi
3:00 AM52 °FClear.5 mph88%30.15 "Hg10 mi
2:30 AM54 °FClear.5 mph82%30.15 "Hg10 mi
2:00 AM54 °FClear.5 mph82%30.15 "Hg10 mi
1:30 AM55 °FClear.6 mph82%30.12 "Hg10 mi
1:00 AM55 °FPassing clouds.5 mph82%30.12 "HgN/A
12:30 AM57 °FPassing clouds.6 mph77%30.12 "HgN/A
12:00 AM57 °FPassing clouds.7 mph82%30.12 "HgN/A
11:30 PM
Sep 1
57 °FPassing clouds.7 mph82%30.12 "HgN/A
11:00 PM57 °FPassing clouds.8 mph82%30.12 "HgN/A
10:30 PM57 °FPassing clouds.7 mph82%30.12 "HgN/A
10:00 PM57 °FPassing clouds.9 mph82%30.12 "HgN/A
9:30 PM57 °FClear.7 mph82%30.12 "Hg10 mi
9:00 PM57 °FPassing clouds.7 mph82%30.12 "HgN/A
8:30 PM57 °FSunny.7 mph82%30.09 "Hg10 mi
8:00 PM57 °FPassing clouds.8 mph82%30.12 "HgN/A
7:30 PM57 °FSunny.8 mph82%30.09 "Hg10 mi
7:00 PM57 °FPassing clouds.8 mph82%30.09 "HgN/A
6:30 PM59 °FPassing clouds.9 mph82%30.09 "HgN/A
6:00 PM59 °FPassing clouds.9 mph77%30.09 "HgN/A
5:30 PM59 °FPassing clouds.9 mph77%30.09 "HgN/A
5:00 PM61 °FPassing clouds.9 mph72%30.09 "HgN/A
4:30 PM61 °FPassing clouds.10 mph68%30.09 "HgN/A
4:00 PM61 °FSunny.10 mph68%30.09 "Hg10 mi
3:30 PM61 °FSunny.10 mph68%30.09 "Hg10 mi
3:00 PM61 °FPassing clouds.10 mph68%30.09 "HgN/A
2:30 PM59 °FPassing clouds.12 mph68%30.09 "HgN/A
2:00 PM59 °FPassing clouds.12 mph72%30.09 "HgN/A
1:30 PM59 °FPassing clouds.13 mph72%30.09 "HgN/A
1:00 PM59 °FPassing clouds.14 mph72%30.09 "HgN/A
12:30 PM59 °FSunny.13 mph72%30.09 "Hg10 mi
12:00 PM59 °FSunny.12 mph72%30.09 "Hg10 mi
11:30 AM57 °FSunny.14 mph77%30.09 "Hg10 mi
11:00 AM57 °FSunny.13 mph77%30.09 "Hg10 mi
10:30 AM57 °FSunny.17 mph77%30.09 "Hg10 mi
10:00 AM57 °FPassing clouds.13 mph77%30.07 "HgN/A
9:30 AM55 °FPassing clouds.16 mph82%30.07 "HgN/A
9:00 AM55 °FPassing clouds.17 mph82%30.07 "HgN/A
8:30 AM55 °FPassing clouds.13 mph88%30.07 "HgN/A
8:00 AM55 °FPassing clouds.14 mph82%30.04 "HgN/A
7:30 AM55 °FPassing clouds.8 mph88%30.04 "HgN/A
7:00 AM54 °FSunny.9 mph88%30.04 "Hg10 mi
6:30 AM54 °FPassing clouds.9 mph94%30.04 "HgN/A
6:00 AM54 °FClear.10 mph94%30.01 "Hg10 mi
5:30 AM55 °FPassing clouds.10 mph88%30.01 "HgN/A
5:00 AM55 °FClear.8 mph94%30.01 "Hg10 mi
Weather by CustomWeather, © 2014

See weather overviewHow to use our weather pages